GFSNW_sfc_thetae_132.txt.gz
Theta_e
302 302 300 302 304 304 302 293 283 299 301 285 284 283 285 291 288 293 292 292 290 289 290 289 288 288 291 298 297 293 295 291 284 287 291 294 294 291 291 284 281 282 282 281
301 301 303 302 304 305 297 286 289 299 296 279 281 285 286 289 288 288 289 289 292 293 290 286 289 290 295 297 296 293 294 288 281 283 288 291 290 292 292 291 288 283 280 281
301 301 302 304 305 306 297 287 282 289 291 288 284 284 285 285 292 290 291 291 293 291 289 290 288 289 294 296 297 298 297 289 285 281 283 289 288 290 292 290 284 285 285 286
303 303 304 304 305 306 294 287 285 286 280 282 285 286 285 285 285 290 291 288 290 289 284 286 287 290 291 294 297 296 294 284 287 288 288 289 288 289 290 288 288 285 287 287
304 305 305 305 306 301 292 286 285 288 285 285 284 285 284 284 286 288 286 286 289 291 287 288 286 289 290 289 294 293 294 284 287 281 286 288 286 290 290 290 290 290 290 289
305 304 306 306 306 302 291 295 295 290 286 283 282 283 283 285 289 290 291 290 290 289 291 293 294 295 294 293 292 291 289 287 284 279 285 284 276 284 288 290 292 291 287 291
305 305 306 306 306 302 296 295 294 288 282 283 282 284 286 285 289 287 291 293 291 293 298 298 295 294 294 293 293 294 288 286 284 276 283 275 283 289 292 290 291 292 293 294
306 306 306 306 306 304 298 298 295 290 282 285 285 286 285 287 291 289 290 290 294 298 295 288 285 285 285 285 286 291 293 287 280 278 278 279 282 283 286 285 283 283 284 283
307 306 306 306 303 302 301 299 299 294 286 284 288 286 288 286 286 284 286 290 293 294 289 285 277 274 275 281 283 288 291 291 282 278 273 269 279 283 287 290 277 279 280 278
307 306 306 306 304 304 302 298 301 294 286 288 290 287 287 292 287 284 286 286 288 289 285 282 278 272 277 278 277 282 284 284 280 276 272 277 279 283 286 274 276 276 277 276
306 306 306 305 306 305 300 297 300 292 285 285 288 288 290 289 287 285 287 287 286 285 282 279 275 274 275 275 278 280 283 281 279 280 278 273 276 280 280 275 275 274 274 273
306 305 305 305 305 304 302 292 296 295 288 286 291 290 291 290 290 291 286 286 285 288 283 280 277 272 273 274 273 281 276 282 279 280 276 274 273 271 273 273 272 271 271 271
304 304 304 304 304 303 299 294 295 293 286 286 286 285 290 293 293 293 287 287 288 286 288 285 281 273 278 272 273 276 278 277 278 276 276 272 271 271 270 271 270 270 270 269
305 303 302 301 301 302 299 290 291 293 287 281 282 290 286 291 296 295 294 291 292 292 290 284 282 273 281 277 279 276 271 273 274 273 274 273 271 268 268 269 268 267 267 267
301 302 302 300 298 298 294 291 290 290 289 281 282 286 287 289 292 292 294 294 289 284 281 279 279 283 279 279 278 267 265 263 271 271 265 267 266 266 265 265 265 265 264 265
299 300 301 301 300 299 294 286 292 288 290 285 278 284 284 285 289 288 286 287 286 283 279 279 277 276 277 273 265 265 264 264 263 260 261 263 265 264 263 263 263 263 263 264
300 298 299 298 294 287 283 284 284 289 289 285 280 281 284 283 285 285 285 283 277 279 278 278 279 274 274 272 265 263 263 263 263 262 262 261 260 260 261 261 261 262 262 263
298 296 296 295 294 290 283 284 286 290 287 285 278 278 281 282 279 278 283 278 275 272 274 270 269 272 270 260 263 263 262 262 261 259 260 259 260 260 258 258 258 257 259 260
297 296 293 288 283 283 283 288 286 281 284 275 273 275 275 279 281 283 278 278 269 270 266 264 267 266 262 260 262 260 258 257 257 258 256 255 255 256 256 255 255 255 256 257
295 290 286 280 279 284 285 279 278 274 270 273 267 270 270 275 279 277 276 274 271 263 262 265 263 255 260 259 256 257 255 254 253 252 253 252 251 252 252 251 253 255 256 256
285 282 277 280 283 283 278 269 269 269 264 264 266 267 271 273 275 275 276 270 268 264 261 262 259 259 260 257 255 256 255 254 251 251 250 250 250 250 251 251 251 252 252 254
280 279 281 279 275 275 270 263 264 260 258 261 262 263 265 270 271 272 268 265 266 261 259 261 260 260 257 255 253 252 251 250 249 248 249 249 251 250 250 250 250 250 252 253
281 274 267 270 265 262 260 259 259 256 257 259 258 261 263 266 270 266 267 262 258 259 261 262 261 257 254 251 249 248 247 246 247 248 249 249 249 249 250 250 249 249 250 251
269 267 261 259 256 256 254 255 255 258 260 258 260 260 263 262 264 264 259 258 259 259 259 262 257 253 252 248 248 248 248 248 249 250 250 249 249 249 249 249 249 250 250 251
260 261 256 255 255 255 254 254 255 257 257 259 258 258 266 261 261 261 259 258 259 261 263 258 254 250 250 249 249 249 250 249 249 250 249 248 248 248 249 250 250 250 249 249
257 255 256 254 255 256 256 256 255 257 257 258 256 258 260 257 258 261 260 260 260 261 254 252 251 251 252 251 252 251 251 249 248 249 248 249 249 248 250 249 249 249 248 248
256 252 252 253 254 253 253 252 254 258 255 254 255 258 258 257 258 259 258 260 257 253 252 254 253 253 252 251 250 250 248 247 248 249 249 248 248 245 246 248 248 247 248 247

GFSNW_sfc_thetae_138.txt.gz
Theta_e
300 303 303 304 304 304 301 292 282 297 301 285 285 282 281 289 286 289 290 287 285 284 287 286 286 287 289 296 296 291 294 289 283 286 291 292 292 290 290 283 281 284 281 279
298 303 303 303 304 303 295 285 287 298 296 280 280 283 285 286 286 287 286 287 289 288 287 285 288 289 293 296 295 292 294 288 281 283 287 291 289 290 291 291 287 282 277 279
301 301 302 302 303 303 295 285 281 288 290 288 282 278 279 282 288 287 289 286 289 288 285 288 286 288 293 295 296 298 296 288 283 280 282 287 287 290 291 290 283 283 282 282
301 302 302 302 303 303 294 288 283 281 280 282 283 281 283 281 282 287 288 286 287 286 284 285 286 288 289 293 296 296 294 286 286 286 287 286 288 288 290 287 288 284 284 286
301 302 302 302 303 303 290 284 282 285 282 283 282 283 280 282 282 285 284 283 286 287 285 287 283 287 289 289 292 293 295 285 287 283 287 287 286 289 289 289 288 288 288 287
302 302 301 302 302 300 289 288 288 287 284 282 281 279 280 282 286 287 288 287 285 285 287 292 293 292 292 291 291 290 291 286 285 282 285 284 280 284 287 288 290 289 285 289
302 302 302 302 301 300 292 291 287 281 277 281 281 282 283 284 285 283 287 288 286 289 294 295 295 294 293 293 294 295 290 287 284 279 282 276 282 286 290 289 288 289 283 283
303 302 303 302 301 301 294 295 290 281 271 280 281 282 283 286 287 285 287 289 291 295 292 286 285 284 284 285 288 293 294 287 281 279 279 279 280 284 285 286 282 279 280 279
302 302 302 302 301 301 298 294 294 289 281 278 283 281 283 279 276 282 286 288 291 294 288 285 279 278 279 281 284 288 292 291 285 278 271 269 279 281 282 286 278 277 279 277
302 302 302 303 302 301 298 295 296 291 283 285 285 279 282 283 281 281 285 285 288 291 284 281 279 278 279 280 280 283 285 285 282 277 271 275 279 278 280 276 278 275 275 274
303 303 303 304 304 304 299 295 297 291 285 285 287 287 284 284 284 282 286 287 286 285 283 281 278 278 279 278 282 284 284 282 281 277 270 274 272 276 279 274 274 273 271 271
304 304 305 305 304 304 301 292 295 295 288 286 290 289 289 288 287 286 286 286 286 288 282 275 276 273 275 273 278 283 281 281 278 278 275 270 270 270 272 274 272 270 270 269
304 305 305 305 305 304 299 292 292 292 285 286 286 285 287 290 288 288 287 286 291 288 287 281 277 275 280 277 275 278 278 276 275 272 269 269 269 269 269 269 268 268 268 267
305 305 305 305 305 304 298 292 290 290 284 282 283 291 286 290 291 291 292 292 293 292 288 283 279 279 282 279 280 277 271 274 272 268 268 268 268 268 268 267 267 266 266 266
306 305 305 305 305 299 292 289 288 288 286 276 282 285 288 289 291 289 292 292 288 284 282 280 279 281 281 278 275 267 263 270 272 272 269 268 268 267 268 266 264 265 265 264
305 305 304 304 300 298 294 286 291 289 288 282 276 285 284 285 288 287 284 285 283 283 279 276 277 279 280 267 265 264 263 262 261 262 263 264 263 263 265 263 263 264 264 264
303 302 302 299 295 288 284 285 285 290 286 282 278 278 283 283 285 284 284 281 277 279 277 277 278 276 275 267 266 262 262 261 262 263 264 261 260 259 261 261 262 261 261 261
300 300 299 297 294 291 283 285 285 290 286 280 273 273 279 282 281 280 282 277 277 273 272 272 272 271 266 260 263 261 260 260 259 258 259 260 259 258 257 256 256 257 257 258
298 297 296 290 284 279 282 289 286 281 282 274 268 268 270 278 280 281 279 279 272 270 269 267 268 266 265 261 262 260 259 258 257 256 256 256 256 255 253 252 251 252 253 253
292 288 286 280 278 287 287 281 279 274 270 270 266 269 267 276 277 276 277 275 271 270 267 267 260 259 260 258 256 258 256 256 256 254 251 250 250 252 251 250 249 251 251 250
284 280 278 282 285 282 276 270 270 268 267 264 264 267 270 274 274 273 276 272 270 269 267 266 260 263 260 255 254 255 255 254 249 249 250 250 252 252 250 248 247 247 248 249
283 279 278 276 270 271 271 264 264 262 261 260 263 265 266 269 273 276 274 271 269 265 260 264 263 264 257 254 253 251 251 251 249 246 250 247 250 248 247 247 247 248 249 249
278 273 268 271 265 265 266 261 259 260 258 259 260 266 267 272 274 272 272 267 260 259 263 262 263 258 255 253 251 247 244 244 245 246 245 245 246 245 247 250 249 248 247 247
268 269 264 261 259 254 254 255 256 258 260 258 259 262 267 268 270 268 269 260 261 259 259 262 262 257 255 250 247 249 248 246 246 246 245 247 248 249 248 248 248 249 250 248
262 263 259 259 257 257 257 255 254 256 255 257 259 261 265 265 266 263 259 259 258 258 263 260 254 250 253 250 246 247 247 246 246 246 247 248 248 248 249 249 247 246 244 244
257 254 256 250 253 253 251 248 249 254 254 254 253 254 259 257 259 261 261 262 261 263 255 251 249 250 249 248 248 249 248 249 246 247 248 249 248 248 249 244 243 244 243 245
254 251 246 250 249 251 249 248 251 255 250 252 249 258 258 256 256 258 254 260 260 255 250 246 249 253 251 249 249 248 248 249 248 245 244 246 243 242 244 247 247 242 245 243

GFSNW_sfc_thetae_141.txt.gz
Theta_e
300 301 301 303 304 305 303 293 283 298 301 286 285 283 285 289 285 287 288 286 285 283 285 286 286 286 287 292 295 290 294 289 281 285 287 291 292 288 289 283 279 283 281 281
300 301 301 303 304 305 295 285 287 297 297 281 281 284 285 286 285 284 285 285 286 287 285 280 286 287 291 293 293 291 293 287 278 283 287 291 289 290 290 289 286 281 279 279
300 300 301 303 305 304 294 286 281 289 290 288 283 281 280 282 286 286 287 286 288 285 283 287 284 286 290 294 294 297 295 288 284 279 280 287 286 288 289 289 283 282 283 282
300 301 301 304 304 303 294 287 282 282 281 282 284 284 279 281 281 285 288 284 286 284 279 281 282 286 289 291 295 295 293 285 286 287 285 286 286 286 288 287 288 284 285 285
300 300 300 303 304 302 291 284 283 284 276 285 283 283 282 281 282 283 282 284 285 286 283 284 281 285 286 288 291 292 292 286 287 284 286 286 284 287 288 289 289 289 286 285
300 302 303 303 303 299 289 290 289 286 285 283 282 281 280 282 284 287 286 285 284 285 287 289 290 292 291 289 288 286 286 285 284 281 285 285 281 285 288 289 291 290 285 290
301 301 302 303 303 297 290 288 287 283 279 281 281 282 283 282 284 283 286 287 285 288 292 294 293 293 293 292 290 292 287 285 285 280 283 276 285 289 291 289 291 292 285 288
301 302 302 302 303 299 292 291 287 281 276 280 281 282 281 284 286 285 286 287 289 292 291 285 282 282 284 285 286 288 292 288 283 280 279 280 280 283 285 287 286 286 286 281
302 302 302 303 303 301 292 293 293 288 281 278 284 282 283 278 278 283 284 289 292 291 286 283 276 271 278 280 283 289 291 292 285 277 275 275 280 281 282 289 280 279 281 278
302 302 302 303 302 302 295 291 295 290 281 283 285 281 282 284 281 281 285 286 287 291 284 271 272 274 280 279 280 282 284 284 282 281 277 280 281 278 280 279 279 277 277 277
302 302 302 302 303 302 298 292 295 293 283 284 285 285 282 283 282 281 284 285 286 285 282 277 276 278 279 278 282 284 283 282 282 277 277 276 271 277 280 276 274 274 272 273
302 302 302 303 302 301 300 292 296 296 288 286 289 287 289 288 287 286 287 286 287 288 284 279 277 273 279 277 279 284 282 283 281 281 278 270 270 271 272 274 272 271 270 271
303 303 303 303 303 303 300 293 294 292 285 286 286 286 288 291 288 289 285 285 290 288 288 282 278 274 279 277 278 278 278 278 276 273 270 269 268 268 269 270 269 269 269 269
303 303 303 304 304 303 299 293 292 292 287 282 282 291 286 290 289 289 290 290 291 291 288 282 276 273 282 278 279 280 274 276 271 268 268 268 269 269 268 267 267 266 267 267
303 304 304 304 304 302 293 291 289 290 288 279 282 285 288 289 290 290 291 292 288 285 283 281 279 280 281 278 277 272 268 272 273 274 269 269 268 268 268 266 266 266 265 265
304 304 304 304 301 299 295 285 290 290 290 281 279 284 284 285 288 286 284 285 284 283 280 278 278 280 280 277 278 266 264 263 262 264 263 265 265 265 266 264 264 265 265 265
304 305 305 303 300 289 286 284 286 289 288 284 275 276 283 283 285 284 283 281 278 279 278 271 277 276 277 274 270 263 262 263 263 263 264 262 261 261 262 263 263 262 261 262
303 301 299 297 295 291 285 285 286 290 286 279 269 271 279 281 281 280 282 278 278 273 272 273 274 275 271 269 264 262 261 261 260 259 260 261 259 259 258 258 258 258 258 258
299 298 296 290 285 283 283 290 287 281 281 268 264 267 269 278 280 280 278 280 273 272 272 269 271 268 269 264 263 261 260 260 258 257 256 257 257 256 254 254 252 254 253 252
297 290 285 281 281 287 286 280 280 275 270 270 267 267 268 275 274 272 275 276 273 272 268 269 263 263 260 260 261 261 259 257 257 255 254 253 252 254 252 250 249 251 251 250
286 281 274 280 283 282 275 270 272 269 267 263 263 267 264 272 269 273 276 273 271 270 267 269 266 269 263 258 256 256 256 256 253 251 252 252 254 253 251 248 246 247 247 248
283 277 278 276 268 268 269 262 267 264 261 260 264 265 267 269 274 276 274 270 268 266 260 268 265 267 257 255 254 253 255 254 251 249 250 249 252 250 250 248 246 245 246 246
280 274 270 270 264 265 265 264 262 263 259 259 261 266 267 270 274 272 274 270 268 262 264 262 265 260 257 254 252 249 244 246 247 245 245 248 246 244 247 247 245 245 246 246
267 267 265 262 260 258 257 257 256 258 260 258 260 261 266 267 269 268 270 260 260 260 261 263 262 258 256 250 247 249 247 247 249 248 245 247 248 246 244 245 245 246 247 247
262 266 260 256 257 256 255 254 255 255 256 257 259 261 266 267 268 263 260 261 260 261 264 261 255 250 253 250 248 248 249 248 247 244 246 246 245 246 247 246 246 245 244 244
260 257 257 251 254 254 251 248 250 253 253 252 253 254 260 258 257 261 263 262 261 263 257 253 249 251 251 250 250 250 249 248 246 245 245 246 247 248 248 243 243 244 244 245
257 254 247 250 249 253 250 247 250 254 249 253 249 258 258 255 255 258 255 260 261 255 251 246 247 253 253 249 249 248 248 247 245 245 245 246 243 242 244 247 248 244 245 245

GFSNW_sfc_thetae_144.txt.gz
Theta_e
301 302 302 303 304 305 303 294 283 297 302 286 285 283 283 287 285 287 287 285 284 283 284 283 285 283 285 290 293 289 293 289 282 284 287 290 291 288 288 282 280 282 277 280
300 301 302 302 303 304 296 285 286 299 298 281 281 285 284 285 284 284 285 284 286 286 284 281 285 285 290 291 292 290 292 286 280 280 286 290 287 289 290 289 284 281 278 279
300 300 301 302 302 304 293 285 281 289 291 289 284 282 283 282 285 284 286 285 287 284 283 285 281 285 289 291 292 296 294 286 283 278 280 285 285 286 289 287 283 282 282 282
300 299 300 301 302 303 293 285 283 285 281 283 283 284 281 281 282 284 286 283 284 282 276 280 281 286 287 290 293 293 291 284 285 286 284 285 285 286 287 286 287 283 285 284
299 299 300 301 302 303 291 284 284 284 283 286 283 284 280 279 283 282 280 280 283 284 280 282 280 284 285 286 290 290 291 284 286 284 286 286 283 285 287 288 288 288 286 285
299 300 300 300 302 301 288 290 290 285 286 283 282 280 281 282 284 285 286 285 283 282 285 287 288 289 288 288 287 288 288 285 282 279 283 284 280 285 285 287 289 289 285 289
300 300 301 301 302 298 291 288 289 281 279 282 282 282 283 282 284 282 285 285 283 286 291 292 292 290 290 289 289 289 284 284 284 279 279 273 284 286 290 287 289 291 290 288
294 298 300 300 302 299 292 289 287 281 277 279 282 282 282 283 285 285 286 287 287 291 289 281 278 280 279 280 286 287 290 287 280 277 277 281 282 283 284 285 286 291 291 284
301 301 300 300 299 300 294 292 290 285 279 277 283 281 282 277 276 281 281 285 290 290 285 282 274 268 271 271 278 286 288 288 282 281 276 273 282 284 282 290 283 286 292 279
301 302 302 302 301 300 292 289 292 287 278 279 283 278 280 283 280 276 280 283 285 290 284 279 269 271 276 270 272 275 281 281 278 279 278 277 279 278 280 281 281 278 284 281
301 302 302 302 302 301 293 289 293 288 277 282 283 285 282 282 281 278 282 285 285 285 280 280 274 268 276 274 278 280 280 279 279 281 278 276 273 278 282 278 274 276 275 276
302 301 302 302 302 302 298 288 294 294 287 286 287 286 287 286 286 285 287 283 285 286 282 282 273 272 277 274 275 283 280 284 282 281 282 272 270 271 273 275 274 272 272 272
302 302 303 303 302 302 298 291 292 291 285 286 284 282 287 290 288 288 284 284 290 288 287 284 281 274 280 277 275 279 280 280 280 275 273 270 270 269 270 271 270 270 270 270
303 303 302 303 303 302 298 293 293 291 287 282 282 291 286 291 290 287 289 290 290 290 286 281 281 274 281 278 280 280 277 279 275 272 269 269 270 270 269 268 268 267 268 268
303 303 303 303 302 301 294 291 290 291 289 281 283 285 288 289 290 289 290 291 287 286 283 280 278 281 279 277 277 274 272 277 278 279 271 272 271 269 269 267 266 267 266 266
302 302 303 303 302 299 292 285 291 291 291 284 280 284 284 286 288 286 285 286 285 284 282 279 280 280 278 276 278 269 266 265 265 268 265 266 268 267 267 266 266 266 266 265
302 303 303 302 300 290 287 284 285 290 289 283 278 277 283 283 285 284 283 282 278 280 279 278 278 278 279 277 276 265 264 264 264 264 265 263 262 262 264 264 263 262 262 263
304 303 303 299 296 292 286 287 287 291 285 280 275 274 279 281 281 279 282 279 277 274 273 274 274 275 273 275 266 262 262 262 261 260 261 263 262 261 260 260 260 259 259 258
302 299 297 291 285 284 284 290 286 282 283 278 268 272 270 277 279 280 279 280 275 273 272 271 270 273 275 272 264 261 261 261 259 258 259 261 260 258 257 257 255 256 255 254
299 291 286 281 281 288 288 282 281 275 271 268 260 261 267 274 274 274 274 272 271 272 269 270 269 269 263 262 261 262 261 259 260 258 256 255 253 256 255 254 251 254 254 251
287 282 279 282 284 282 278 274 274 268 266 260 259 261 264 273 272 269 274 270 271 269 267 266 265 267 265 260 258 259 258 255 252 251 253 255 257 256 252 248 248 251 251 251
285 281 280 276 271 274 275 265 267 267 266 262 263 264 263 265 271 269 271 272 268 268 260 263 264 265 257 255 252 253 254 252 250 248 251 250 254 253 252 251 249 250 249 248
276 271 269 270 265 267 269 267 262 260 255 260 261 265 266 270 273 271 273 266 265 259 260 264 266 258 256 253 251 249 247 249 249 246 246 250 248 246 249 249 244 248 248 245
269 268 266 263 262 260 260 260 259 258 260 259 261 263 267 267 269 268 267 259 260 262 260 264 261 256 255 250 248 249 248 249 249 248 245 248 249 247 244 247 248 249 249 247
262 264 262 258 256 257 256 255 256 258 258 259 261 262 266 268 268 263 261 261 262 263 264 262 256 251 254 251 249 249 249 248 248 246 248 248 248 249 247 244 244 245 245 245
260 256 256 251 254 254 251 252 254 255 256 256 257 261 262 262 262 263 263 264 261 264 259 255 249 251 252 251 250 250 250 249 247 246 245 247 247 249 249 242 243 246 246 247
258 254 246 251 251 255 253 252 253 254 251 256 253 261 262 257 256 258 256 261 262 257 252 246 247 252 254 250 249 248 248 248 247 244 244 246 243 241 244 248 247 246 246 245

GFSNW_sfc_thetae_147.txt.gz
Theta_e
302 302 302 303 305 306 303 294 283 300 303 287 285 284 285 287 284 286 286 285 284 282 284 282 283 283 285 290 292 288 292 288 282 283 287 290 291 287 288 281 280 282 278 280
302 303 302 302 304 305 297 285 287 298 297 280 282 284 285 285 284 285 285 284 285 285 284 280 284 285 289 290 291 289 291 285 280 279 284 289 287 289 290 288 284 281 279 280
301 302 302 303 303 305 294 286 281 289 292 290 285 283 283 282 286 285 286 285 286 285 283 284 282 283 288 291 291 296 294 285 281 277 279 284 284 286 288 287 281 282 283 284
301 301 302 302 303 304 293 285 283 285 282 284 285 284 281 281 278 284 286 285 285 284 277 281 281 285 286 289 292 292 290 283 284 285 285 284 283 284 286 285 286 282 284 285
300 300 301 302 302 303 292 283 283 285 282 287 284 285 282 281 283 282 280 280 284 284 281 283 281 285 285 285 288 288 290 282 284 281 285 285 283 285 285 286 287 287 287 286
300 300 300 301 301 301 286 289 290 285 287 284 283 282 282 282 284 284 285 284 283 282 284 286 287 288 287 286 286 285 286 285 282 278 282 283 279 284 285 286 288 288 283 289
299 299 300 300 301 299 292 290 288 284 281 283 283 283 284 283 285 282 283 285 284 285 290 289 288 287 287 286 286 287 282 282 281 278 277 272 281 284 288 286 288 290 290 291
300 300 299 300 301 300 293 292 289 284 280 283 283 282 282 284 285 284 284 285 287 289 287 281 277 277 274 278 285 285 287 283 278 276 275 278 281 283 284 283 284 289 289 291
299 300 300 300 301 301 295 293 291 286 280 281 284 281 283 278 275 279 281 287 288 288 282 273 269 269 269 267 271 284 286 287 281 279 274 272 279 281 284 289 281 290 290 290
298 299 301 300 301 301 295 292 291 285 277 279 283 278 281 282 279 275 277 284 285 286 283 276 267 268 274 269 271 276 279 280 278 277 276 276 284 280 283 279 281 281 282 290
299 298 300 301 300 300 294 291 292 287 277 281 283 284 282 281 279 275 279 280 281 283 278 274 274 265 274 272 274 274 277 277 277 278 275 273 278 278 281 281 276 277 276 278
300 299 300 300 301 300 295 289 291 291 285 281 286 285 286 286 286 282 284 280 280 284 274 275 273 277 277 267 273 281 274 281 278 280 279 276 272 271 273 274 276 274 274 274
302 302 302 302 302 300 295 291 289 288 285 285 285 283 285 288 287 288 284 286 287 286 285 280 282 270 280 276 277 274 280 277 279 279 275 274 273 271 270 272 274 272 273 272
302 302 302 302 302 301 297 289 289 288 283 276 277 290 284 288 289 287 287 288 289 290 289 283 280 272 282 279 280 280 279 280 275 275 272 271 272 272 270 269 269 269 269 270
302 303 303 303 302 299 293 292 291 290 285 278 278 285 288 287 288 287 288 289 288 284 283 282 279 280 280 280 278 274 274 279 278 280 275 274 272 272 270 269 268 268 267 267
303 302 303 302 301 298 293 286 291 292 290 282 279 284 284 286 286 288 288 289 286 286 281 281 277 278 281 277 273 274 268 266 267 271 267 269 269 269 270 267 267 267 267 267
303 303 302 301 300 292 286 285 286 291 291 284 279 278 282 283 285 284 283 282 279 282 281 279 278 278 280 278 275 272 267 266 266 267 267 265 265 265 266 265 264 263 263 264
303 302 302 299 296 293 286 287 288 291 285 283 278 277 276 281 280 279 282 279 278 275 276 275 276 275 275 274 273 266 264 262 262 262 262 264 264 263 261 262 262 261 260 260
302 301 297 292 286 284 284 289 287 282 282 279 273 271 270 277 278 279 274 278 274 274 274 273 272 275 274 277 268 264 262 262 262 260 261 262 262 260 260 259 259 259 257 257
299 291 287 281 281 289 289 283 283 278 273 268 267 261 267 273 274 271 273 274 273 272 270 271 269 269 264 263 260 265 262 260 260 258 256 258 258 259 257 256 257 259 257 254
287 283 279 282 284 283 278 276 276 268 269 264 260 260 264 273 272 273 276 273 270 269 269 270 268 264 266 259 256 258 259 259 254 253 255 258 260 258 256 255 255 254 253 252
286 282 280 278 274 274 276 268 266 268 268 258 260 262 267 266 272 269 270 269 269 269 264 265 263 268 257 257 258 257 257 257 254 252 255 256 256 256 256 253 252 252 250 249
280 276 273 273 270 268 268 266 263 261 256 261 262 266 265 270 272 269 268 266 267 261 263 268 269 258 254 251 250 251 249 249 250 250 251 253 252 252 250 249 245 248 247 245
271 268 268 265 265 263 262 262 261 260 261 261 263 264 268 268 268 270 269 264 263 262 261 266 265 257 256 253 249 252 251 249 250 249 248 250 251 249 245 247 248 249 249 246
264 265 267 258 255 257 258 257 258 258 259 260 262 263 267 269 269 265 262 261 262 265 267 264 259 252 254 251 249 249 250 248 249 245 248 249 248 249 247 243 245 246 246 247
258 254 256 251 256 253 251 254 257 256 259 259 261 264 264 267 264 262 264 263 263 266 261 258 250 252 253 252 252 251 251 249 248 247 246 248 248 250 249 243 242 244 246 248
256 255 245 249 250 255 254 255 255 256 256 260 258 265 268 259 258 258 258 263 267 263 256 247 248 253 254 252 251 249 249 248 248 246 245 245 244 243 245 248 248 246 246 246